Airfield :
LOGIN :

Register | Disclaimer

   EN    FR    IT 

 










Legend :    VFR   Marginal VFR   IFR   Intensive IFR   Very Intensive IFR
Visi :
Ceiling :
>= 8 km
>= 3000ft
5 to 8 km
1000 to 3000 ft
1500m to 5 km
500 to 1000 ft
800 to 1500m
200 to 500 ft
< 800m
< 200 ft
Symbols :   Thunderstorms  Fog  Heavy snow  Heavy precipitations  Wind > 20 kt
SIGMETs :     Misc.  Thunderstorms  Icing  Turbulence  Mountain Waves  Volcanic Ashes







- Airport Elevation : 13 ft
- IATA code : LYX
- Download approach charts


EGMD - Lydd

CURRENT METAR :
  • 160520Z AUTO 17004KT 9999 NCD 14/14 Q1015

EXPIRED METARs :
  • 160450Z AUTO 11005KT 5000 BR NCD 15/15 Q1015
  • 160420Z AUTO 10007KT 4100 BR FEW001/// 15/15 Q1015
  • 160350Z AUTO 10008KT 8000 NCD 15/15 Q1015
  • 160320Z AUTO 09010KT 4400 BR FEW001/// 15/15 Q1015
  • 160250Z AUTO 09011KT 5000 BR SCT001/// 15/15 Q1014

TAF TAF EGMD
Valid from the 16 at 06:00 until the 16 at 15:00 UTC


160503Z 1606/1615 14008KT 5000 BR FEW001
BECMG 1606/1609 20012KT 9999 NSW
ATIS : +44 1797 322 422
No reported NOTAMs for that airfield.



MET'MAP, your aeronautical weather chart ! - Copyright ORBIFLY December 2007 - Disclaimer

ORBIFLY MET'MAP TEAM :

Programming & Development : Alexandra Zaïnal
Concept & Development : Baudouin d'Aumeries
Co-Development & Prog : Marc-Olivier Méhu
Technical & hardware support : Manuel Goepfert

Contact : metmap@orbifly.com




SOURCES & CREDITS :

   NOAA